[[{"header":{"parameterUnit":"m.s-1","parameterCategory":2,"la1":30.2991,"la2":30.254,"lo1":-89.0895,"lo2":-89.0444,"dy":0.0017,"dx":0.0017,"nx":28,"ny":28,"refTime":"2024-08-08T03:00:00:Z","depth":"0","parameterNumber":2,"parameterNumberName":"U-component_of_CURRENTS"},"data":[0,0,0,0,0,0,0,0,0,0,0,0,0,0,0,0,0,0,0,0,0,0,0,0,0,0,0,0,0,0,0,0,0,0,0,0,0,0,0,0,0,0,0,0,0,0,0,0,0,0,0,0,0,0,0,0,0,0,0.2694,0.2693,0,0.2672,0.2672,0.2672,0.2639,0.2638,0.2637,0.2636,0.2671,0.2673,0.2675,0,0,0,0,0,0,0,0,0,0,0,0,0,0.2763,0.2762,0.2694,0.2693,0.2692,0.2672,0.2672,0.2672,0.2639,0.2638,0.2637,0.2636,0.2671,0.2673,0.2675,0,0,0,0,0,0,0,0,0,0,0,0,0,0.274,0.2762,0.2694,0.267,0.2667,0.2672,0.2672,0.2672,0.2639,0.2638,0.2636,0.2635,0.267,0.2673,0.2675,0.2723,0,0,0.2684,0.2685,0,0,0,0,0,0,0,0,0.2742,0.2738,0.2674,0.2672,0.2669,0.2652,0.2709,0.269,0.264,0.2655,0.2636,0.2634,0.2669,0.2671,0.2676,0.2724,0.2726,0.2684,0.2686,0.2687,0.2688,0,0,0,0,0,0,0,0.2743,0.274,0.269,0.2674,0.267,0.2679,0.2674,0.2706,0.2675,0.2653,0.265,0.2641,0.2668,0.2674,0.2677,0.2726,0.2684,0.2687,0.2688,0.269,0.2856,0.2859,0,0,0,0,0,0,0.2735,0.2741,0.269,0.2688,0.2697,0.2679,0.2673,0.2663,0.2673,0.2672,0.2642,0.2639,0.2669,0.2674,0.2678,0.2768,0.2687,0.269,0.2691,0.2854,0.2857,0.286,0,0,0,0,0,0,0.2737,0.2731,0.2691,0.2711,0.2705,0.2678,0.2667,0.2663,0.2669,0.2663,0.2663,0.2651,0.2668,0.2674,0.2732,0.2768,0.2691,0.2694,0.285,0.2855,0.2858,0.2927,0,0,0,0,0,0,0.2739,0.2732,0.2744,0.271,0.2704,0.2709,0.2668,0.2664,0.2663,0.266,0.2672,0.2673,0.2668,0.2728,0.2735,0.277,0.2696,0.2847,0.2852,0.2857,0.2921,0.2933,0.2943,0,0,0,0,0,0.2742,0.277,0.2744,0.2739,0.2713,0.271,0.271,0.2688,0.2666,0.2686,0.27,0.2672,0.2765,0.2733,0.274,0.2777,0.2844,0.2851,0.2857,0.2917,0.2931,0.2943,0,0,0,0,0,0,0.2806,0.2767,0.2739,0.2752,0.2734,0.2703,0.2724,0.2699,0.2724,0.272,0.2714,0.2719,0.2777,0.278,0.2745,0.2843,0.2798,0.2806,0.2842,0.2855,0.2866,0.2842,0.2698,0,0,0,0,0,0.2823,0.2834,0.2788,0.28,0.2793,0.2758,0.2759,0.2733,0.2736,0.2743,0.2747,0.2768,0.281,0.2833,0.2859,0.2923,0.2955,0.2952,0.2963,0.2972,0.2961,0.3065,0.3084,0.288,0.288,0.288,0,0,0.2845,0.283,0.2832,0.2816,0.28,0.2801,0.2758,0.2756,0.2759,0.2748,0.2779,0.2803,0.2835,0.2899,0.2926,0.2906,0.3055,0.298,0.2987,0.297,0.3074,0.3094,0.3111,0.2884,0.2884,0.2883,0,0,0.2892,0.2884,0.29,0.2895,0.287,0.2849,0.2849,0.2818,0.2812,0.2844,0.2842,0.2893,0.294,0.2975,0.3,0.3093,0.3104,0.3103,0.3145,0.3248,0.3266,0.3281,0.3378,0.3401,0.3115,0.3115,0.3115,0,0.2912,0.2924,0.2908,0.2923,0.2917,0.2872,0.2876,0.2877,0.2868,0.288,0.2862,0.296,0.2976,0.3074,0.3097,0.3115,0.3175,0.309,0.3262,0.3277,0.3292,0.3387,0.3412,0.3119,0.3118,0.3118,0.3118,0,0.2961,0.2973,0.2989,0.2983,0.2986,0.2988,0.2962,0.2974,0.2957,0.2949,0.3021,0.306,0.3118,0.3141,0.3142,0.326,0.3272,0.3259,0.3223,0.3317,0.3411,0.3436,0.3125,0.3123,0.3122,0.3121,0,0,0.2946,0.3008,0.3,0.3008,0.301,0.3002,0.3036,0.3041,0.3054,0.3079,0.3123,0.3201,0.321,0.324,0.3267,0.3346,0.3503,0.3344,0.3348,0.343,0.3746,0.3753,0.378,0.3529,0.3533,0.3536,0.3781,0,0.2963,0.301,0.3033,0.3055,0.3063,0.3064,0.3089,0.3097,0.3109,0.3149,0.3206,0.3258,0.3255,0.3291,0.3378,0.3459,0.3566,0.3437,0.365,0.3656,0.3643,0.3808,0.3721,0.3932,0.3805,0.3809,0.3812,0,0.2958,0.2996,0.303,0.3074,0.3074,0.3084,0.3105,0.313,0.319,0.3207,0.3289,0.332,0.3447,0.3418,0.3643,0.3567,0.3663,0.3727,0.3739,0.3728,0.3708,0.3814,0.3981,0.387,0.3849,0.3846,0.3844,0,0.2908,0.2971,0.2999,0.3013,0.3065,0.3077,0.3099,0.314,0.3161,0.3253,0.3297,0.3429,0.3507,0.3652,0.3776,0.3733,0.4014,0.3976,0.4086,0.4088,0.4043,0.4033,0.4111,0.4156,0.4155,0.4154,0.4154,0,0.2891,0.29,0.2977,0.2985,0.3002,0.3048,0.3064,0.311,0.318,0.3218,0.3327,0.3399,0.3569,0.373,0.3837,0.4053,0.4088,0.413,0.4168,0.4068,0.4058,0.3977,0.3855,0.4164,0.4162,0.416,0.4158,0,0.2812,0.2871,0.2895,0.296,0.2976,0.2978,0.3031,0.3052,0.3141,0.3209,0.325,0.3418,0.3636,0.3817,0.4057,0.4141,0.4224,0.439,0.4256,0.4273,0.4243,0.4126,0.4086,0.3978,0.4569,0.457,0.4572,0,0.2785,0.2794,0.2851,0.2858,0.2882,0.2905,0.292,0.3007,0.3044,0.3208,0.325,0.3477,0.3621,0.4005,0.4204,0.4465,0.4294,0.452,0.4412,0.4268,0.4167,0.3956,0.385,0.4401,0.4401,0.4401,0.4401,0,0.272,0.273,0.275,0.277,0.2783,0.2809,0.2855,0.2874,0.2987,0.3087,0.3232,0.3366,0.3737,0.3966,0.4309,0.4447,0.4288,0.4529,0.4425,0.4088,0.3817,0.3722,0.4202,0.4402,0.4402,0.4402,0.4402,0.4401,0.2647,0.2641,0.2662,0.2669,0.2683,0.2695,0.2693,0.2774,0.2844,0.2972,0.314,0.333,0.3698,0.4171,0.4299,0.4439,0.4314,0.4387,0.4281,0.4101,0.3906,0.4385,0.4584,0.4585,0.4586,0.4587,0.4587,0,0.256,0.2565,0.2569,0.2566,0.2541,0.2594,0.2631,0.2629,0.2691,0.2868,0.3013,0.335,0.3646,0.3941,0.4241,0.4203,0.4046,0.4107,0.3778,0.3706,0.4219,0.412,0.4169,0.417,0.417,0.417,0.417,0.417,0.2507,0.2481,0.2492,0.2424,0.2424,0.2375,0.2382,0.2418,0.2513,0.2668,0.284,0.305,0.3408,0.3765,0.388,0.3871,0.3591,0.3488,0.3411,0.3758,0.3774,0.379,0.3674,0.3629,0.3628,0.2827,0.282,0.2815]},{"header":{"parameterUnit":"m.s-1","parameterCategory":2,"la1":30.2991,"la2":30.254,"lo1":-89.0895,"lo2":-89.0444,"dy":0.0017,"dx":0.0017,"nx":28,"ny":28,"refTime":"2024-08-08T03:00:00:Z","depth":"0","parameterNumber":3,"parameterNumberName":"V-component_of_CURRENTS"},"data":[0,0,0,0,0,0,0,0,0,0,0,0,0,0,0,0,0,0,0,0,0,0,0,0,0,0,0,0,0,0,0,0,0,0,0,0,0,0,0,0,0,0,0,0,0,0,0,0,0,0,0,0,0,0,0,0,0,0,0.0055,0.0056,0,0.0055,0.0054,0.0054,0.0046,0.0046,0.0046,0.0046,-0.0101,-0.0105,-0.0109,0,0,0,0,0,0,0,0,0,0,0,0,0,0.0022,0.0023,0.0055,0.0056,0.0056,0.0055,0.0054,0.0054,0.0046,0.0046,0.0046,0.0046,-0.0099,-0.0104,-0.0109,0,0,0,0,0,0,0,0,0,0,0,0,0,0.0027,0.0023,0.0055,0.0054,0.0054,0.0055,0.0054,0.0054,0.0046,0.0046,0.0046,0.0046,-0.0098,-0.0104,-0.011,-0.0151,0,0,-0.0128,-0.0131,0,0,0,0,0,0,0,0,0.0027,0.0028,0.0054,0.0054,0.0055,0.0054,-0.0011,-0.002,0.0046,0.0045,0.0046,0.0046,-0.006,-0.0069,-0.0073,-0.0157,-0.0164,-0.0129,-0.0132,-0.0135,-0.0137,0,0,0,0,0,0,0,0.0027,0.0028,0.0051,0.0055,0.0055,0.0045,0.0046,-0.0012,-0.0014,0.0045,0.0045,0.0051,-0.0062,-0.0067,-0.0077,-0.0166,-0.0128,-0.0134,-0.0137,-0.014,-0.023,-0.0229,0,0,0,0,0,0,0.0036,0.0028,0.0051,0.0052,0.0045,0.0046,0.0047,0.0051,-0.0011,-0.0017,0.0051,0.0051,-0.0057,-0.007,-0.0082,-0.0073,-0.0135,-0.014,-0.0144,-0.0231,-0.023,-0.0228,0,0,0,0,0,0,0.0035,0.0038,0.0051,0.0043,0.0044,0.0047,0.0051,0.0051,0.0049,-0.0004,-0.0014,0.0051,-0.0057,-0.0074,-0.0107,-0.0081,-0.0143,-0.0149,-0.0233,-0.0231,-0.0229,-0.0095,0,0,0,0,0,0,0.0034,0.0037,0.0038,0.0043,0.0045,0.0055,0.0052,0.0051,0.0054,0.0053,-0.0008,-0.0021,-0.0058,-0.0097,-0.0113,-0.0091,-0.0153,-0.0234,-0.0232,-0.023,-0.0101,-0.0088,-0.0078,0,0,0,0,0,0.0033,0.0043,0.0038,0.0041,0.0048,0.0056,0.0055,0.0055,0.0054,0.0053,0.003,-0.0019,-0.0094,-0.0101,-0.012,-0.0099,-0.0235,-0.0232,-0.023,-0.0106,-0.0091,-0.0078,0,0,0,0,0,0,0.0046,0.0043,0.0038,0.0051,0.0053,0.0056,0.0058,0.0057,0.004,0.0037,-0.0012,-0.0026,-0.0044,-0.0094,-0.0101,-0.0117,-0.0171,-0.0171,-0.007,-0.0057,-0.0046,-0.0019,-0.0158,0,0,0,0,0,0.0046,0.0042,0.0045,0.0056,0.0055,0.0054,0.0056,0.0057,0.0048,0.0041,0.0007,-0.0028,-0.0048,-0.0069,-0.0107,-0.0127,-0.0165,-0.0124,-0.0113,-0.0103,-0.0093,-0.0115,-0.0104,-0.0219,-0.0219,-0.0219,0,0,0.0062,0.0054,0.0058,0.0057,0.0055,0.0071,0.0055,0.0062,0.0085,0.0023,0.0031,-0.0,-0.0045,-0.0048,-0.0062,-0.0087,-0.0088,-0.0099,-0.009,-0.0086,-0.0111,-0.01,-0.009,-0.0217,-0.0218,-0.0218,0,0,0.0088,0.0077,0.0081,0.0082,0.0079,0.0081,0.0085,0.0086,0.0093,0.0095,0.0073,0.007,0.0012,0.0014,0.0001,0.0045,-0.0029,0.0021,0.0099,0.0078,0.0088,0.0096,0.0072,0.0076,0.0029,0.0029,0.003,0,0.0107,0.0116,0.0087,0.0095,0.011,0.009,0.0118,0.0121,0.0117,0.0136,0.0109,0.0094,0.0053,0.0083,0.0111,0.0073,0.004,0.0055,0.0095,0.0102,0.0107,0.0081,0.0084,0.0036,0.0035,0.0035,0.0034,0,0.0139,0.0148,0.0154,0.0156,0.0163,0.0183,0.0187,0.0196,0.0197,0.0212,0.0233,0.0198,0.0195,0.0187,0.0163,0.0196,0.0153,0.0112,0.0066,0.0128,0.0095,0.0096,0.0046,0.0044,0.0042,0.004,0,0,0.0193,0.018,0.0186,0.0199,0.0201,0.0217,0.0248,0.0285,0.0325,0.0316,0.0369,0.036,0.0346,0.0332,0.0302,0.0294,0.0316,0.023,0.0225,0.0216,0.0265,0.0235,0.0232,0.0277,0.0277,0.0278,0.023,0,0.0236,0.0263,0.0248,0.0297,0.0318,0.0312,0.0349,0.0377,0.0391,0.043,0.0423,0.0444,0.04,0.0404,0.0396,0.0336,0.0323,0.0333,0.0197,0.0193,0.0167,0.0234,0.0231,0.0187,0.023,0.023,0.023,0,0.0283,0.0294,0.0338,0.0372,0.0383,0.0408,0.0466,0.0496,0.0539,0.0549,0.0573,0.0558,0.0575,0.0507,0.0452,0.0456,0.0375,0.0319,0.0314,0.024,0.0166,0.0128,0.0186,-0.0022,0.0231,0.0231,0.0231,0,0.0336,0.0367,0.0404,0.0415,0.0444,0.0471,0.0494,0.0539,0.058,0.0622,0.0655,0.0658,0.0656,0.0579,0.0485,0.0461,0.0403,0.0346,0.0242,0.0238,0.0186,0.0176,0.0035,0.0291,0.0291,0.0291,0.0292,0,0.0392,0.0427,0.0429,0.0452,0.0513,0.0517,0.0588,0.0611,0.066,0.0725,0.0717,0.0761,0.0669,0.0632,0.0524,0.0406,0.043,0.0274,0.0233,0.0232,0.0228,0.0001,-0.0102,0.0289,0.029,0.029,0.0291,0,0.0439,0.0441,0.0484,0.0517,0.0532,0.0572,0.0629,0.0683,0.072,0.0797,0.0815,0.0837,0.0797,0.0702,0.0577,0.0455,0.0234,0.0281,0.0292,0.0254,-0.0046,-0.014,-0.0291,-0.0373,0.016,0.016,0.0159,0,0.0461,0.0483,0.0522,0.0547,0.0559,0.0613,0.0657,0.0704,0.0759,0.0849,0.0893,0.0895,0.0918,0.0748,0.0557,0.0379,0.0203,0.0208,0.0161,-0.0046,-0.0182,-0.0236,-0.0297,0.0143,0.0143,0.0142,0.0141,0,0.0503,0.0508,0.0537,0.0586,0.0628,0.0689,0.075,0.0805,0.0873,0.0948,0.1031,0.1062,0.0929,0.0788,0.0547,0.039,0.0069,0.0186,-0.0031,-0.0198,-0.0263,-0.0367,0.0149,0.0135,0.0136,0.0136,0.0137,0.0137,0.0528,0.0551,0.058,0.063,0.0682,0.0761,0.0827,0.0904,0.101,0.1155,0.1151,0.1252,0.1003,0.0702,0.0445,-0.0023,0.0002,-0.0184,-0.0277,-0.031,-0.0399,0.0107,0.0046,0.0046,0.0046,0.0046,0.0046,0,0.0562,0.0582,0.0625,0.0689,0.0755,0.078,0.0891,0.0976,0.1111,0.1267,0.1363,0.1339,0.0986,0.0604,0.0012,-0.0393,-0.0531,-0.0626,-0.0721,-0.0759,-0.0318,-0.0332,-0.0475,-0.0475,-0.0475,-0.0474,-0.0474,-0.0474,0.0585,0.0622,0.0642,0.0744,0.0794,0.0906,0.0981,0.1114,0.1248,0.1468,0.1591,0.1659,0.1359,0.0212,-0.064,-0.0856,-0.1124,-0.118,-0.1315,-0.1053,-0.102,-0.0988,-0.1028,-0.1314,-0.1315,-0.1705,-0.171,-0.1713]}],[{"header":{"parameterUnit":"m.s-1","parameterCategory":2,"la1":30.2991,"la2":30.254,"lo1":-89.0895,"lo2":-89.0444,"dy":0.0017,"dx":0.0017,"nx":28,"ny":28,"refTime":"2024-08-08T03:00:00:Z","depth":"2","parameterNumber":2,"parameterNumberName":"U-component_of_CURRENTS"},"data":[0,0,0,0,0,0,0,0,0,0,0,0,0,0,0,0,0,0,0,0,0,0,0,0,0,0,0,0,0,0,0,0,0,0,0,0,0,0,0,0,0,0,0,0,0,0,0,0,0,0,0,0,0,0,0,0,0,0,0.162,0.162,0,0.1576,0.1575,0.1574,0.1581,0.1583,0.1584,0.1585,0.162,0.1619,0.1619,0,0,0,0,0,0,0,0,0,0,0,0,0,0.1475,0.1478,0.162,0.162,0.162,0.1576,0.1575,0.1573,0.1581,0.1583,0.1584,0.1586,0.162,0.1619,0.1619,0,0,0,0,0,0,0,0,0,0,0,0,0,0.1489,0.1479,0.162,0.1623,0.1624,0.1576,0.1575,0.1573,0.1581,0.1583,0.1585,0.1587,0.162,0.1619,0.1619,0.1573,0,0,0.1617,0.1617,0,0,0,0,0,0,0,0,0.1488,0.1493,0.1623,0.1623,0.1623,0.1592,0.1536,0.1579,0.158,0.159,0.1585,0.1588,0.1621,0.162,0.1596,0.1575,0.1576,0.1617,0.1617,0.1616,0.1616,0,0,0,0,0,0,0,0.1488,0.1494,0.1595,0.1623,0.1623,0.1547,0.1553,0.1542,0.159,0.1589,0.1591,0.1596,0.1621,0.1597,0.1598,0.1577,0.1617,0.1617,0.1616,0.1616,0.1683,0.1685,0,0,0,0,0,0,0.1518,0.1495,0.1597,0.1595,0.1567,0.1549,0.1555,0.1594,0.1588,0.1591,0.1595,0.1597,0.1597,0.1598,0.1599,0.1694,0.1616,0.1616,0.1616,0.1681,0.1683,0.1686,0,0,0,0,0,0,0.1515,0.1528,0.1599,0.1546,0.1551,0.1552,0.1594,0.1593,0.1608,0.1593,0.1596,0.1618,0.1598,0.16,0.1625,0.169,0.1616,0.1615,0.1678,0.1682,0.1684,0.1788,0,0,0,0,0,0,0.1512,0.1528,0.1549,0.155,0.1556,0.1592,0.1593,0.159,0.1609,0.1613,0.1613,0.1616,0.16,0.1626,0.1625,0.1688,0.1615,0.1676,0.168,0.1683,0.1782,0.1795,0.1805,0,0,0,0,0,0.1507,0.1525,0.1551,0.1563,0.1592,0.1593,0.1587,0.1587,0.1609,0.161,0.1623,0.1618,0.1652,0.1626,0.1624,0.1689,0.1674,0.1679,0.1683,0.1777,0.1792,0.1805,0,0,0,0,0,0,0.1461,0.1528,0.1557,0.1594,0.1608,0.1598,0.1598,0.1607,0.1612,0.1633,0.1624,0.1626,0.1681,0.1662,0.1634,0.1722,0.167,0.1675,0.1742,0.1756,0.1768,0.1798,0.1614,0,0,0,0,0,0.1468,0.1509,0.1551,0.1578,0.16,0.1609,0.1608,0.162,0.163,0.1635,0.1642,0.1661,0.1688,0.1705,0.1711,0.174,0.1764,0.1788,0.1799,0.1809,0.1834,0.1923,0.1946,0.1701,0.1701,0.1701,0,0,0.1453,0.1498,0.1517,0.1571,0.1589,0.1619,0.1613,0.1636,0.1669,0.1638,0.1686,0.1697,0.1705,0.1751,0.1775,0.1749,0.189,0.1815,0.1824,0.1844,0.1931,0.1955,0.1976,0.1705,0.1704,0.1703,0,0,0.1443,0.1501,0.1536,0.1564,0.1613,0.1626,0.165,0.1674,0.1701,0.173,0.1746,0.18,0.1804,0.1846,0.1863,0.1941,0.1948,0.1946,0.2031,0.2117,0.2139,0.2158,0.2216,0.224,0.1953,0.1953,0.1953,0,0.1424,0.1493,0.1535,0.158,0.1613,0.1647,0.169,0.1712,0.1738,0.1783,0.1765,0.1854,0.186,0.1961,0.1993,0.1973,0.2008,0.1976,0.2135,0.2154,0.2172,0.2228,0.2252,0.1959,0.1958,0.1957,0.1957,0,0.1447,0.1507,0.1531,0.1622,0.1651,0.1691,0.1752,0.1797,0.1839,0.1869,0.1973,0.1982,0.2048,0.2063,0.2049,0.2192,0.2171,0.214,0.2103,0.2203,0.2254,0.2279,0.1967,0.1965,0.1963,0.1962,0,0,0.1416,0.1527,0.1542,0.1598,0.1689,0.1717,0.1805,0.1896,0.1973,0.2016,0.2116,0.2185,0.2216,0.224,0.2251,0.2322,0.2473,0.2292,0.2294,0.2356,0.2659,0.2479,0.2486,0.2473,0.2477,0.2481,0.2643,0,0.1434,0.1517,0.1575,0.1663,0.1722,0.1801,0.1875,0.1963,0.2034,0.213,0.2209,0.2291,0.2277,0.2321,0.2404,0.2451,0.2542,0.2432,0.2547,0.2551,0.2383,0.251,0.2307,0.242,0.2666,0.267,0.2673,0,0.1457,0.1516,0.1599,0.1722,0.1759,0.1811,0.1965,0.2033,0.2184,0.2247,0.2368,0.2412,0.2556,0.2505,0.269,0.2621,0.2669,0.2693,0.2699,0.2514,0.2415,0.236,0.2454,0.2713,0.271,0.2707,0.2704,0,0.1426,0.1544,0.1612,0.1652,0.1782,0.1851,0.193,0.2075,0.215,0.2333,0.2399,0.2567,0.2641,0.2752,0.2809,0.2775,0.2973,0.2926,0.2819,0.2806,0.2647,0.2609,0.3081,0.3081,0.308,0.308,0.3079,0,0.1435,0.1495,0.1605,0.1642,0.1733,0.1842,0.1956,0.2064,0.2215,0.2315,0.2457,0.2548,0.2707,0.2817,0.2875,0.2914,0.3042,0.2871,0.2852,0.2671,0.2636,0.2888,0.2864,0.3086,0.3084,0.3083,0.3082,0,0.1397,0.1467,0.1545,0.1676,0.1717,0.1785,0.1933,0.202,0.2173,0.2309,0.2371,0.2568,0.2713,0.283,0.2998,0.2965,0.3035,0.3016,0.2771,0.2718,0.2801,0.278,0.2941,0.2937,0.2933,0.2929,0.2927,0,0.1393,0.1426,0.1536,0.1572,0.1632,0.1739,0.1816,0.1981,0.2066,0.2302,0.2357,0.2544,0.2649,0.2808,0.28,0.2872,0.2977,0.2704,0.2591,0.2829,0.2796,0.2781,0.2766,0.2442,0.2436,0.2431,0.2426,0,0.1374,0.1403,0.1454,0.1516,0.159,0.1669,0.1787,0.1836,0.2042,0.2156,0.2324,0.243,0.2553,0.252,0.256,0.2569,0.2668,0.2589,0.2974,0.2461,0.2359,0.2324,0.2327,0.2379,0.2384,0.2387,0.239,0.2391,0.1348,0.1363,0.1414,0.1467,0.1537,0.1598,0.1633,0.1761,0.1869,0.1997,0.2144,0.2229,0.2265,0.2198,0.2185,0.219,0.234,0.2285,0.2304,0.2328,0.2193,0.2084,0.2029,0.2031,0.2034,0.2036,0.2038,0,0.1307,0.133,0.137,0.1421,0.1448,0.1523,0.1612,0.1621,0.1706,0.1816,0.19,0.1762,0.1751,0.1858,0.1769,0.175,0.1763,0.1726,0.1752,0.1799,0.184,0.1683,0.1383,0.1381,0.138,0.1378,0,0,0.1288,0.1288,0.13,0.1316,0.1361,0.1378,0.1407,0.144,0.1489,0.1479,0.1509,0.1562,0.1731,0.1479,0.1466,0.1435,0.1604,0.1386,0.1908,0.198,0.2019,0.2156,0.1962,0,0,0,0,0]},{"header":{"parameterUnit":"m.s-1","parameterCategory":2,"la1":30.2991,"la2":30.254,"lo1":-89.0895,"lo2":-89.0444,"dy":0.0017,"dx":0.0017,"nx":28,"ny":28,"refTime":"2024-08-08T03:00:00:Z","depth":"2","parameterNumber":3,"parameterNumberName":"V-component_of_CURRENTS"},"data":[0,0,0,0,0,0,0,0,0,0,0,0,0,0,0,0,0,0,0,0,0,0,0,0,0,0,0,0,0,0,0,0,0,0,0,0,0,0,0,0,0,0,0,0,0,0,0,0,0,0,0,0,0,0,0,0,0,0,-0.0227,-0.0227,0,-0.0291,-0.0292,-0.0292,-0.0312,-0.0312,-0.0312,-0.0311,-0.0375,-0.0377,-0.0379,0,0,0,0,0,0,0,0,0,0,0,0,0,-0.0148,-0.0149,-0.0227,-0.0228,-0.0228,-0.0291,-0.0292,-0.0293,-0.0312,-0.0312,-0.0312,-0.0311,-0.0375,-0.0377,-0.0379,0,0,0,0,0,0,0,0,0,0,0,0,0,-0.0193,-0.0149,-0.0226,-0.0246,-0.0249,-0.0291,-0.0292,-0.0293,-0.0312,-0.0312,-0.0311,-0.0311,-0.0374,-0.0377,-0.0379,-0.0404,0,0,-0.0388,-0.039,0,0,0,0,0,0,0,0,-0.019,-0.0196,-0.0243,-0.0245,-0.0248,-0.0294,-0.0287,-0.033,-0.0312,-0.0287,-0.0311,-0.0311,-0.0349,-0.0354,-0.0365,-0.0407,-0.041,-0.0389,-0.039,-0.0392,-0.0392,0,0,0,0,0,0,0,-0.0187,-0.0193,-0.0251,-0.0244,-0.0247,-0.0261,-0.0267,-0.0296,-0.0319,-0.0289,-0.0291,-0.03,-0.035,-0.0363,-0.0367,-0.0411,-0.0388,-0.0391,-0.0393,-0.0394,-0.0456,-0.0456,0,0,0,0,0,0,-0.018,-0.019,-0.0249,-0.0253,-0.0219,-0.0263,-0.0269,-0.0279,-0.0318,-0.0324,-0.03,-0.0301,-0.0358,-0.0364,-0.0369,-0.0348,-0.0391,-0.0394,-0.0396,-0.0456,-0.0456,-0.0456,0,0,0,0,0,0,-0.0178,-0.0185,-0.0247,-0.0224,-0.0233,-0.0265,-0.0275,-0.028,-0.0285,-0.0327,-0.0332,-0.0299,-0.0358,-0.0365,-0.0385,-0.0352,-0.0395,-0.0398,-0.0456,-0.0456,-0.0456,-0.0339,0,0,0,0,0,0,-0.0176,-0.0184,-0.0185,-0.0223,-0.0234,-0.0259,-0.0276,-0.0282,-0.0292,-0.0293,-0.0328,-0.0334,-0.0358,-0.038,-0.0388,-0.0357,-0.04,-0.0456,-0.0456,-0.0456,-0.0342,-0.0334,-0.0327,0,0,0,0,0,-0.0173,-0.0177,-0.0184,-0.0191,-0.0235,-0.0258,-0.0265,-0.0286,-0.0292,-0.0289,-0.0314,-0.0332,-0.0385,-0.0383,-0.0391,-0.036,-0.0457,-0.0456,-0.0456,-0.0346,-0.0336,-0.0328,0,0,0,0,0,0,-0.0133,-0.0181,-0.0189,-0.0204,-0.0223,-0.0262,-0.0267,-0.028,-0.0298,-0.0299,-0.0333,-0.0341,-0.0346,-0.038,-0.0377,-0.0383,-0.0423,-0.0425,-0.0336,-0.0328,-0.032,-0.0287,-0.0403,0,0,0,0,0,-0.0127,-0.0148,-0.0182,-0.0191,-0.0201,-0.0231,-0.0242,-0.0255,-0.028,-0.0288,-0.0309,-0.0337,-0.0355,-0.0362,-0.039,-0.0394,-0.0431,-0.0383,-0.0375,-0.0368,-0.035,-0.0397,-0.0391,-0.0456,-0.0456,-0.0456,0,0,-0.0113,-0.0143,-0.0152,-0.0185,-0.0204,-0.0199,-0.0236,-0.025,-0.0232,-0.0293,-0.0278,-0.0314,-0.0354,-0.0352,-0.0357,-0.0373,-0.0369,-0.0368,-0.0361,-0.0347,-0.0396,-0.0389,-0.0383,-0.0455,-0.0456,-0.0456,0,0,-0.0095,-0.012,-0.0128,-0.0138,-0.0165,-0.018,-0.0178,-0.0207,-0.0205,-0.0208,-0.024,-0.0255,-0.0289,-0.0298,-0.031,-0.0284,-0.0332,-0.0299,-0.0223,-0.0268,-0.0262,-0.0258,-0.0285,-0.0284,-0.0289,-0.0288,-0.0288,0,-0.0065,-0.0081,-0.0129,-0.0127,-0.0121,-0.0162,-0.0141,-0.0148,-0.0173,-0.0162,-0.0188,-0.0223,-0.0256,-0.024,-0.0226,-0.026,-0.0296,-0.0246,-0.0254,-0.0251,-0.0248,-0.0278,-0.0279,-0.0283,-0.0283,-0.0284,-0.0285,0,-0.0051,-0.0049,-0.005,-0.0058,-0.0059,-0.005,-0.0062,-0.0057,-0.0065,-0.0069,-0.0063,-0.0114,-0.013,-0.0143,-0.0171,-0.0159,-0.0194,-0.0241,-0.0267,-0.0234,-0.0269,-0.0271,-0.0275,-0.0277,-0.0278,-0.028,0,0,0.0008,-0.0031,-0.0022,-0.0005,-0.0015,-0.0009,0.0018,0.0038,0.0071,0.0043,0.0081,0.005,0.0019,0.0002,-0.0042,-0.0072,-0.008,-0.0136,-0.0141,-0.0144,-0.0169,-0.0223,-0.0231,-0.0133,-0.0133,-0.0133,-0.0195,0,0.0055,0.0068,0.0041,0.0093,0.0111,0.0095,0.0129,0.0141,0.0143,0.0166,0.0128,0.0136,0.0076,0.0071,0.0034,-0.0051,-0.0083,-0.0057,-0.0217,-0.0221,-0.0258,-0.0235,-0.0217,-0.0274,-0.0198,-0.0199,-0.0199,0,0.0103,0.0105,0.0142,0.0174,0.0184,0.0208,0.026,0.0286,0.0302,0.0303,0.0298,0.026,0.0242,0.0164,0.0054,0.007,-0.0032,-0.0109,-0.0115,-0.0205,-0.028,-0.0301,-0.0282,-0.0204,-0.0203,-0.0203,-0.0203,0,0.0173,0.0197,0.0227,0.0239,0.0254,0.0282,0.0304,0.033,0.037,0.0391,0.0413,0.0369,0.0352,0.0227,0.0083,0.0063,-0.0058,-0.0115,-0.0257,-0.0262,-0.0297,-0.0305,-0.0205,-0.0205,-0.0205,-0.0205,-0.0205,0,0.0241,0.028,0.0261,0.0284,0.0349,0.0344,0.0421,0.0436,0.0471,0.0537,0.0488,0.0517,0.0362,0.0276,0.0123,-0.006,-0.0032,-0.0231,-0.0281,-0.0257,-0.026,-0.0246,-0.025,-0.0207,-0.0207,-0.0206,-0.0206,0,0.0311,0.0295,0.0342,0.0362,0.0375,0.0426,0.0488,0.055,0.0568,0.0646,0.0659,0.0629,0.0523,0.0353,0.0156,-0.0003,-0.0179,-0.026,-0.0209,-0.0253,-0.0362,-0.0359,-0.0419,-0.0421,-0.0423,-0.0425,-0.0426,0,0.0334,0.0358,0.0396,0.043,0.044,0.0505,0.056,0.0596,0.0661,0.072,0.0766,0.07,0.0662,0.0364,0.0086,-0.0187,-0.0207,-0.0361,-0.0406,-0.034,-0.0383,-0.0377,-0.0372,-0.0399,-0.04,-0.0401,-0.0402,0,0.0388,0.04,0.0432,0.0501,0.0559,0.0639,0.0713,0.0772,0.0831,0.0885,0.0949,0.0921,0.0653,0.0379,-0.0004,-0.0183,-0.0316,-0.0392,-0.0333,-0.0355,-0.033,-0.037,-0.0364,-0.041,-0.0409,-0.0409,-0.0408,-0.0408,0.0421,0.0463,0.0503,0.058,0.0655,0.076,0.0838,0.0928,0.1027,0.1074,0.1031,0.0957,0.0645,0.0133,-0.0124,-0.0379,-0.0398,-0.0513,-0.0506,-0.05,-0.0493,-0.0474,-0.0579,-0.0579,-0.0579,-0.0579,-0.0579,0,0.0447,0.0504,0.0581,0.0673,0.0775,0.0804,0.0935,0.1015,0.1143,0.1111,0.1099,0.0766,0.0443,0.0156,-0.0245,-0.0518,-0.0499,-0.057,-0.0496,-0.0489,-0.0482,-0.0471,-0.0553,-0.0553,-0.0553,-0.0553,0,0,0.046,0.0535,0.0587,0.075,0.0831,0.0968,0.1048,0.117,0.1188,0.114,0.1034,0.0793,0.0463,0.0155,-0.0171,-0.0341,-0.0346,-0.037,-0.0376,-0.0245,-0.0234,-0.0447,-0.0423,0,0,0,0,0]}],[{"header":{"parameterUnit":"m.s-1","parameterCategory":2,"la1":30.2991,"la2":30.254,"lo1":-89.0895,"lo2":-89.0444,"dy":0.0017,"dx":0.0017,"nx":28,"ny":28,"refTime":"2024-08-08T03:00:00:Z","depth":"4","parameterNumber":2,"parameterNumberName":"U-component_of_CURRENTS"},"data":[0,0,0,0,0,0,0,0,0,0,0,0,0,0,0,0,0,0,0,0,0,0,0,0,0,0,0,0,0,0,0,0,0,0,0,0,0,0,0,0,0,0,0,0,0,0,0,0,0,0,0,0,0,0,0,0,0,0,0.0473,0.0474,0,0.0516,0.0516,0.0517,0.0557,0.0557,0.0558,0.0558,0.06,0.0601,0.0602,0,0,0,0,0,0,0,0,0,0,0,0,0,0.0427,0.0428,0.0473,0.0474,0.0474,0.0516,0.0516,0.0517,0.0557,0.0557,0.0558,0.0558,0.06,0.0601,0.0602,0,0,0,0,0,0,0,0,0,0,0,0,0,0.0457,0.0428,0.0473,0.0498,0.0501,0.0515,0.0516,0.0517,0.0557,0.0557,0.0558,0.0559,0.06,0.0601,0.0602,0.0595,0,0,0.0605,0.0606,0,0,0,0,0,0,0,0,0.0455,0.0459,0.0494,0.0497,0.05,0.0531,0.0516,0.0543,0.0557,0.0536,0.0558,0.0559,0.0576,0.0579,0.0587,0.0597,0.0599,0.0605,0.0606,0.0606,0.0607,0,0,0,0,0,0,0,0.0453,0.0457,0.0491,0.0495,0.0498,0.0508,0.0513,0.0521,0.0553,0.0538,0.0541,0.0544,0.0578,0.0586,0.0588,0.06,0.0605,0.0606,0.0607,0.0607,0.0669,0.067,0,0,0,0,0,0,0.0446,0.0455,0.0489,0.0492,0.0478,0.0508,0.0514,0.0521,0.0553,0.0558,0.0544,0.0546,0.0583,0.0587,0.059,0.0646,0.0606,0.0607,0.0608,0.0668,0.0669,0.067,0,0,0,0,0,0,0.0445,0.0448,0.0488,0.0474,0.0479,0.0508,0.0516,0.0521,0.0547,0.0557,0.0562,0.0565,0.0584,0.0588,0.0623,0.0645,0.0608,0.0609,0.0666,0.0668,0.0669,0.0718,0,0,0,0,0,0,0.0443,0.0448,0.0452,0.0473,0.048,0.0496,0.0515,0.0522,0.0546,0.055,0.0576,0.058,0.0585,0.0621,0.0624,0.0646,0.061,0.0665,0.0667,0.0669,0.0715,0.0721,0.0726,0,0,0,0,0,0.0441,0.0443,0.0452,0.0456,0.0484,0.0496,0.05,0.0523,0.0547,0.0551,0.0587,0.058,0.0635,0.0623,0.0626,0.0649,0.0664,0.0667,0.0669,0.0713,0.072,0.0726,0,0,0,0,0,0,0.0425,0.0448,0.0458,0.0467,0.048,0.0502,0.0515,0.0531,0.0563,0.0578,0.0595,0.0601,0.0639,0.0636,0.0623,0.0671,0.0647,0.065,0.068,0.0686,0.0691,0.0695,0.061,0,0,0,0,0,0.0422,0.0431,0.0451,0.0458,0.047,0.0497,0.0508,0.0523,0.0551,0.0567,0.06,0.0627,0.0646,0.0661,0.0676,0.0702,0.0683,0.0718,0.0723,0.0728,0.0732,0.0713,0.0717,0.0677,0.0677,0.0677,0,0,0.0418,0.0431,0.0438,0.0455,0.0476,0.0501,0.0507,0.0527,0.0565,0.0565,0.0641,0.0648,0.0657,0.0693,0.0709,0.0697,0.0731,0.0731,0.0735,0.0737,0.0716,0.0719,0.0723,0.0679,0.0678,0.0678,0,0,0.0416,0.0431,0.0442,0.0458,0.0484,0.0504,0.0514,0.0554,0.0592,0.0648,0.066,0.0678,0.0732,0.0732,0.0739,0.0779,0.0759,0.0791,0.0824,0.0806,0.0809,0.0811,0.0798,0.0798,0.0795,0.0795,0.0795,0,0.0411,0.0433,0.0445,0.0464,0.0491,0.0512,0.0542,0.0578,0.063,0.066,0.0682,0.0745,0.0747,0.077,0.0792,0.079,0.0784,0.0799,0.0812,0.0814,0.0815,0.0801,0.0801,0.0798,0.0797,0.0797,0.0797,0,0.0417,0.0446,0.0458,0.0499,0.0521,0.0548,0.0598,0.0644,0.0701,0.0727,0.0784,0.0797,0.0829,0.083,0.0833,0.0845,0.0839,0.0819,0.0793,0.0822,0.0805,0.0804,0.0801,0.08,0.08,0.0799,0,0,0.0385,0.0452,0.0458,0.0492,0.0548,0.0565,0.0643,0.0699,0.0741,0.0801,0.0853,0.0888,0.0889,0.0897,0.089,0.0876,0.088,0.0866,0.0864,0.085,0.0854,0.0872,0.0872,0.087,0.087,0.087,0.084,0,0.0394,0.0436,0.0477,0.0537,0.057,0.063,0.0698,0.0748,0.08,0.0853,0.0871,0.0919,0.0918,0.094,0.0926,0.0896,0.0881,0.0891,0.0831,0.0829,0.0839,0.0873,0.087,0.0839,0.0839,0.0839,0.0839,0,0.0388,0.042,0.0479,0.057,0.0594,0.0648,0.0743,0.0803,0.0866,0.0912,0.0948,0.0962,0.0982,0.0968,0.0939,0.0955,0.0916,0.088,0.0878,0.0877,0.0846,0.0803,0.0836,0.0837,0.0837,0.0837,0.0837,0,0.0342,0.0426,0.0478,0.0506,0.0607,0.0675,0.0747,0.0821,0.0874,0.0953,0.0989,0.1005,0.1038,0.0996,0.0963,0.0958,0.0908,0.0881,0.0852,0.0853,0.082,0.0818,0.0839,0.084,0.084,0.084,0.084,0,0.0329,0.0368,0.0473,0.0498,0.0579,0.0667,0.0755,0.0829,0.0913,0.0939,0.1023,0.1033,0.1051,0.103,0.0973,0.093,0.0922,0.0869,0.0851,0.0843,0.0844,0.082,0.0818,0.0839,0.0839,0.0839,0.0839,0,0.0268,0.0334,0.0392,0.0513,0.0561,0.0622,0.0772,0.0816,0.0927,0.0966,0.1006,0.1072,0.1074,0.1065,0.0995,0.0961,0.0896,0.0869,0.088,0.086,0.0846,0.0847,0.0842,0.0843,0.0843,0.0844,0.0844,0,0.0246,0.0265,0.0379,0.0422,0.0494,0.0604,0.0673,0.081,0.0842,0.0952,0.0945,0.1017,0.104,0.0981,0.0969,0.0914,0.0888,0.0872,0.0852,0.0866,0.0848,0.0849,0.0849,0.0845,0.0845,0.0845,0.0845,0,0.0188,0.0228,0.0272,0.0359,0.0446,0.0523,0.0631,0.0655,0.0779,0.087,0.0898,0.0936,0.0948,0.0944,0.0949,0.0878,0.09,0.0876,0.0874,0.0855,0.0868,0.0851,0.085,0.0847,0.0846,0.0846,0.0846,0,0.0137,0.015,0.0212,0.0296,0.0386,0.0442,0.0506,0.0578,0.0646,0.0775,0.0754,0.0836,0.0899,0.092,0.0879,0.0886,0.0864,0.0833,0.0833,0.0831,0.0849,0.0866,0.0837,0,0,0,0,0,0.0083,0.0096,0.0152,0.0239,0.0325,0.0384,0.0474,0.053,0.0631,0.0635,0.0712,0.0721,0.0776,0.0808,0.081,0.0855,0.0846,0.0855,0.0804,0.0855,0.0853,0.088,0,0,0,0,0,0,0.0045,0.0073,0.0118,0.0187,0.0239,0.0321,0.0379,0.0437,0.0456,0.056,0.0586,0.069,0.0734,0.0759,0.0795,0.0808,0.0768,0.0911,0.091,0.0856,0.0854,0.0853,0.088,0,0,0,0,0]},{"header":{"parameterUnit":"m.s-1","parameterCategory":2,"la1":30.2991,"la2":30.254,"lo1":-89.0895,"lo2":-89.0444,"dy":0.0017,"dx":0.0017,"nx":28,"ny":28,"refTime":"2024-08-08T03:00:00:Z","depth":"4","parameterNumber":3,"parameterNumberName":"V-component_of_CURRENTS"},"data":[0,0,0,0,0,0,0,0,0,0,0,0,0,0,0,0,0,0,0,0,0,0,0,0,0,0,0,0,0,0,0,0,0,0,0,0,0,0,0,0,0,0,0,0,0,0,0,0,0,0,0,0,0,0,0,0,0,0,-0.0155,-0.0155,0,-0.015,-0.015,-0.015,-0.0172,-0.0172,-0.0173,-0.0173,-0.0251,-0.0252,-0.0254,0,0,0,0,0,0,0,0,0,0,0,0,0,-0.0164,-0.0164,-0.0155,-0.0155,-0.0155,-0.015,-0.015,-0.015,-0.0172,-0.0172,-0.0173,-0.0174,-0.025,-0.0252,-0.0254,0,0,0,0,0,0,0,0,0,0,0,0,0,-0.016,-0.0164,-0.0155,-0.0164,-0.0165,-0.015,-0.015,-0.015,-0.0172,-0.0172,-0.0173,-0.0174,-0.025,-0.0252,-0.0254,-0.0252,0,0,-0.0261,-0.0262,0,0,0,0,0,0,0,0,-0.0161,-0.016,-0.0163,-0.0164,-0.0165,-0.0162,-0.0182,-0.0188,-0.0171,-0.017,-0.0173,-0.0174,-0.0228,-0.0232,-0.0229,-0.0256,-0.0259,-0.0262,-0.0263,-0.0264,-0.0265,0,0,0,0,0,0,0,-0.0161,-0.016,-0.0154,-0.0163,-0.0164,-0.0162,-0.0163,-0.0183,-0.0196,-0.017,-0.0172,-0.0169,-0.0229,-0.0227,-0.0231,-0.026,-0.0262,-0.0264,-0.0265,-0.0266,-0.041,-0.0413,0,0,0,0,0,0,-0.016,-0.0161,-0.0154,-0.0154,-0.0164,-0.0161,-0.0162,-0.0163,-0.0194,-0.0199,-0.0169,-0.017,-0.0222,-0.0228,-0.0234,-0.0322,-0.0264,-0.0266,-0.0267,-0.0408,-0.0411,-0.0414,0,0,0,0,0,0,-0.016,-0.0159,-0.0154,-0.0156,-0.0156,-0.016,-0.0161,-0.0162,-0.0169,-0.0192,-0.0199,-0.0175,-0.0223,-0.0231,-0.027,-0.0322,-0.0267,-0.0269,-0.0405,-0.0409,-0.0412,-0.0441,0,0,0,0,0,0,-0.016,-0.016,-0.0163,-0.0156,-0.0155,-0.014,-0.016,-0.0161,-0.0165,-0.0168,-0.02,-0.0207,-0.0224,-0.0266,-0.0272,-0.0324,-0.0271,-0.0402,-0.0407,-0.0411,-0.0437,-0.0445,-0.0452,0,0,0,0,0,-0.0161,-0.0153,-0.0163,-0.0163,-0.0159,-0.0139,-0.0138,-0.0145,-0.0165,-0.0157,-0.0198,-0.0206,-0.0301,-0.0268,-0.0275,-0.033,-0.04,-0.0405,-0.0411,-0.0434,-0.0444,-0.0452,0,0,0,0,0,0,-0.0154,-0.0154,-0.0165,-0.0158,-0.015,-0.0143,-0.014,-0.0147,-0.017,-0.0184,-0.0216,-0.0225,-0.0288,-0.0301,-0.0265,-0.039,-0.0361,-0.0368,-0.0376,-0.0386,-0.0393,-0.0383,-0.0273,0,0,0,0,0,-0.0156,-0.0152,-0.0149,-0.0142,-0.0142,-0.0146,-0.0142,-0.0144,-0.016,-0.017,-0.0203,-0.0255,-0.0314,-0.034,-0.0379,-0.0427,-0.0415,-0.0476,-0.0483,-0.049,-0.0489,-0.0518,-0.0527,-0.0432,-0.0432,-0.0431,0,0,-0.0152,-0.0149,-0.0149,-0.0141,-0.0142,-0.0144,-0.0146,-0.0137,-0.0161,-0.0177,-0.023,-0.0273,-0.0332,-0.0399,-0.043,-0.0416,-0.0508,-0.0497,-0.0501,-0.0497,-0.0525,-0.0534,-0.0542,-0.0435,-0.0435,-0.0434,0,0,-0.0132,-0.0142,-0.0134,-0.0132,-0.0128,-0.0135,-0.0135,-0.0141,-0.0169,-0.0213,-0.0256,-0.032,-0.0392,-0.0447,-0.0488,-0.0559,-0.0545,-0.059,-0.0619,-0.0648,-0.0655,-0.0662,-0.0633,-0.0637,-0.0595,-0.0595,-0.0595,0,-0.0131,-0.0126,-0.0126,-0.0121,-0.013,-0.0137,-0.014,-0.0165,-0.0189,-0.0224,-0.0239,-0.0382,-0.0423,-0.0525,-0.0563,-0.0576,-0.0567,-0.0575,-0.0655,-0.0661,-0.0667,-0.0636,-0.064,-0.0597,-0.0597,-0.0597,-0.0597,0,-0.0107,-0.0114,-0.0108,-0.0119,-0.0124,-0.0122,-0.0157,-0.0187,-0.0235,-0.0265,-0.0371,-0.0436,-0.052,-0.0564,-0.0589,-0.0674,-0.0644,-0.0654,-0.062,-0.0677,-0.0642,-0.0645,-0.06,-0.06,-0.0599,-0.0599,0,0,-0.009,-0.0092,-0.0096,-0.0105,-0.0128,-0.0124,-0.0185,-0.0233,-0.027,-0.0346,-0.0412,-0.0545,-0.0575,-0.0624,-0.0674,-0.0713,-0.0744,-0.0705,-0.0706,-0.0656,-0.0765,-0.0724,-0.0723,-0.0767,-0.0769,-0.077,-0.0713,0,-0.0081,-0.0066,-0.0085,-0.01,-0.0102,-0.0149,-0.02,-0.0248,-0.0305,-0.0364,-0.0472,-0.0548,-0.0602,-0.0647,-0.0702,-0.0739,-0.0758,-0.0755,-0.0736,-0.0734,-0.0675,-0.0728,-0.0775,-0.0715,-0.0716,-0.0716,-0.0716,0,-0.007,-0.0058,-0.0062,-0.0097,-0.0107,-0.0132,-0.0207,-0.025,-0.0341,-0.039,-0.0487,-0.0543,-0.065,-0.0671,-0.0763,-0.0758,-0.0763,-0.078,-0.0778,-0.0733,-0.0701,-0.0657,-0.0721,-0.0721,-0.0721,-0.072,-0.072,0,-0.0052,-0.0059,-0.0063,-0.007,-0.0104,-0.0146,-0.0186,-0.0264,-0.0295,-0.0401,-0.0419,-0.0553,-0.0606,-0.0676,-0.073,-0.0746,-0.0782,-0.0802,-0.0761,-0.0754,-0.0789,-0.0784,-0.0838,-0.0838,-0.0838,-0.0838,-0.0838,0,-0.0045,-0.0053,-0.0055,-0.0056,-0.0076,-0.0124,-0.0168,-0.0228,-0.0292,-0.0307,-0.0427,-0.0458,-0.061,-0.0651,-0.0708,-0.0739,-0.0765,-0.0766,-0.0753,-0.08,-0.0797,-0.0789,-0.0784,-0.0836,-0.0836,-0.0837,-0.0837,0,-0.0038,-0.0038,-0.0036,-0.0058,-0.0067,-0.0089,-0.0135,-0.0154,-0.0225,-0.0246,-0.0277,-0.0383,-0.0458,-0.0559,-0.0645,-0.0685,-0.073,-0.0718,-0.0717,-0.0704,-0.0679,-0.0677,-0.0682,-0.068,-0.0679,-0.0678,-0.0677,0,-0.0033,-0.0027,-0.002,-0.0008,-0.0024,-0.0049,-0.0061,-0.0127,-0.013,-0.0186,-0.0182,-0.0265,-0.0338,-0.0417,-0.0547,-0.064,-0.0654,-0.0654,-0.0728,-0.0685,-0.0671,-0.0671,-0.0671,-0.0675,-0.0674,-0.0674,-0.0674,0,-0.0021,-0.0021,-0.0009,0.0024,0.0024,0.003,0.0009,0.0017,-0.004,-0.0069,-0.0092,-0.0175,-0.0242,-0.0379,-0.0444,-0.0518,-0.0664,-0.0641,-0.0645,-0.0715,-0.0676,-0.0664,-0.0665,-0.0669,-0.067,-0.067,-0.067,0,-0.0016,-0.0001,0.0022,0.0042,0.0069,0.0082,0.0066,0.0065,0.0049,0.0002,0.0009,-0.0107,-0.018,-0.0309,-0.0372,-0.0452,-0.0488,-0.0511,-0.0523,-0.0529,-0.0528,-0.046,-0.0377,0,0,0,0,0,-0.0017,-0.0001,0.0037,0.0056,0.0092,0.0097,0.011,0.0095,0.0076,0.0085,0.0042,-0.002,-0.0156,-0.0232,-0.0303,-0.0372,-0.0516,-0.0456,-0.055,-0.0644,-0.0649,-0.0675,0,0,0,0,0,0,-0.002,0.0012,0.0036,0.0072,0.0089,0.0112,0.012,0.0107,0.0104,0.0083,0.001,-0.002,-0.0162,-0.0112,-0.03,-0.0329,-0.0392,-0.0525,-0.0525,-0.0641,-0.0645,-0.065,-0.0678,0,0,0,0,0]}]]